Tracking 29892 objects as of 21-Nov-2024
HD Live streaming from Space Station
objects crossing your sky now

ONEWEB-0062

Track ONEWEB-0062 now!
10-day predictions
ONEWEB-0062 is classified as:


NORAD ID: 45163
Int'l Code: 2020-008AJ
Perigee: 1,228.0 km
Apogee: 1,229.7 km
Inclination: 87.9 °
Period: 109.9 minutes
Semi major axis: 7599 km
RCS: Unknown
Launch date: February 6, 2020
Source: United Kingdom (UK)
Launch site: TYURATAM MISSILE AND SPACE COMPLEX (TTMTR)
Your satellite tracking list
Your tracking list is empty




NASA's NSSDC Master Catalog

Two Line Element Set (TLE):
1 45163U 20008AJ  24325.94165306 -.00000488  00000-0 -14344-2 0  9999
2 45163  87.8891 150.4218 0001165  82.8274 277.2986 13.10372692233864
Source of the keplerian elements: AFSPC